This is the latest recevied weather packets stored in our database for station/object W3TMB. If no packets are shown the sender has not sent any weather packets the latest 10 day(s).
| Time | Temp. | Humidity | Pressure | Rain* | Wind** | Luminosity | Snow |
|---|---|---|---|---|---|---|---|
| 1777775437 | 6.67° C | 73% | 1012.1 hPa | 0 mm | - | 0 W/m² | - |
| 1777775132 | 6.67° C | 71% | 1012.1 hPa | 0 mm | - | 0 W/m² | - |
| 1777774827 | 7.22° C | 71% | 1011.9 hPa | 0 mm | - | 0 W/m² | - |
| 1777774524 | 7.22° C | 70% | 1012 hPa | 0 mm | - | 0 W/m² | - |
| 1777774221 | 7.22° C | 70% | 1012 hPa | 0 mm | - | 0 W/m² | - |
| 1777773918 | 7.22° C | 73% | 1012.1 hPa | 0 mm | - | 0 W/m² | - |
| 1777773615 | 7.22° C | 70% | 1012 hPa | 0 mm | - | 0 W/m² | - |
| 1777773312 | 7.22° C | 69% | 1011.7 hPa | 0 mm | - | 0 W/m² | - |
| 1777773009 | 7.22° C | 68% | 1011.7 hPa | 0 mm | - | 0 W/m² | - |
| 1777772705 | 7.22° C | 69% | 1011.9 hPa | 0 mm | - | 0 W/m² | - |
| 1777772403 | 7.22° C | 68% | 1012 hPa | 0 mm | - | 0 W/m² | - |
| 1777772100 | 7.78° C | 66% | 1011.8 hPa | 0 mm | - | 0 W/m² | - |
| 1777771797 | 7.78° C | 65% | 1011.8 hPa | 0 mm | - | 0 W/m² | - |
| 1777771495 | 7.78° C | 64% | 1011.6 hPa | 0 mm | - | 0 W/m² | - |
| 1777771190 | 7.78° C | 63% | 1011.8 hPa | 0 mm | - | 0 W/m² | - |
| 1777770888 | 7.78° C | 63% | 1011.8 hPa | 0 mm | - | 0 W/m² | - |
| 1777770585 | 7.78° C | 64% | 1011.7 hPa | 0 mm | - | 0 W/m² | - |
| 1777770281 | 7.78° C | 65% | 1011.8 hPa | 0 mm | - | 0 W/m² | - |
| 1777769979 | 7.78° C | 66% | 1011.8 hPa | 0 mm | - | 0 W/m² | - |
| 1777769676 | 7.78° C | 65% | 1011.7 hPa | 0 mm | - | 0 W/m² | - |
| 1777769373 | 7.78° C | 64% | 1011.5 hPa | 0 mm | - | 0 W/m² | - |
| 1777769069 | 8.33° C | 65% | 1011.5 hPa | 0 mm | - | 0 W/m² | - |
| 1777768767 | 8.33° C | 63% | 1011.3 hPa | 0 mm | - | 0 W/m² | - |
| 1777768464 | 8.33° C | 65% | 1011.3 hPa | 0 mm | - | 0 W/m² | - |
| 1777768161 | 8.33° C | 67% | 1011.4 hPa | 0 mm | - | 0 W/m² | - |
* Rain latest hour (hover to see other rain measurements)
** Current wind speed in m/s (hover to see current wind gust speed)